Showing default

LAPAN A3, 41603

Orbit data source: Space-Track

LAPAN A3, 41603 is a payload satellite owned by LAPAN (ID) in SSO that was launched on Wed, 22 Jun 2016 UTC via a PSLV-XL launch vehicle from the Sirharikota (SRI). Payloads include a variety of satellites, spacecraft, and rockets equipped with specific instruments for various scientific and technological missions. These include communications satellites like Starlink; space stations such as the ISS; scientific satellites like the Hubble; Earth observation satellites from companies like Planet Labs, Umbra, and HawkEye 360; GPS; miniature CubeSats for education and research; and military/defense satellites.

Loading next visibility...
LAPAN A3 details
Identifier
41603, 2016-040E
Orbit
SSO
Last TLE update8 hours ago
Origin
Flag of IDLAPAN (ID / INDO)
ManufacturerLAPAN
MissionOperational Civil Imaging
Bus & MotorTUBSAT, Unknown motor
Mass120 kg wet, 120 kg dry
Launch date (UTC)
2016-06-22 (8 years ago)
Launch vehicle
PSLV-XL
Launch site
Sirharikota (SRI)
Object type
Payload
Rocket body
Debris
Shape & HBRBox, 0.5 m
Radar Cross Section0.225 m², Medium (>0.1 m² and < 1m²)

Expand to show TLE details & history

TLE from 8 hours ago
0 LAPAN A3
1 41603U 16040E   24339.10755690  .00007191  00000-0  26872-3 0  9995
2 41603  97.1387 345.3584 0010360 209.4300 150.6358 15.27592753469149
Epoch: 2024-12-04T02:34Z
Definitive object data (Epoch: 2024-12-04T02:34:52.916Z)
Latitude0.00001°
Longitude-126.76954°
Altitude492.317 km
Speed7.615 km/s
True Right ascension23h 01m 26s
True Declination0° 00' 00"
Sunlit
Object was in daylight at TLE epoch
Visualization TLE readout
Latitude-70.12826°
Longitude-106.31069°
Altitude508.018 km
Speed7.609 km/s
Apparent Right ascension21h 21m 54s
Apparent Declination-59° 16' 30"
Sunlit
Object is in daylight
Visualization observer readout
Local Sidereal Time08:02:11
Azimuth206.378° SW
Elevation-66.926°
Doppler factor1
Orbital elements
Apogee altitude487.06 km
Perigee altitude472.85 km
Semi-major axis6,858.092 km
Eccentricity0.001036
Inclination97.1387°
RAAN345.3584°
Arg. of periapsis209.43°
True anomaly150.69395°
Mean anomaly150.6358°
Eccentric anomaly150.66488°
Mean motion3.82154 °/min
BSTAR0.00026872
Orbital period94.2 mins
Loading maneuver chart data...
Loading historical data...
Loading historical data...
Loading historical data...
Loading historical data...
Loading historical data...
Loading historical data...
Loading historical data...

LAPAN A3 Visibility forecast

Observer location: undefined°, undefined

Span
Click to sort rows by Start time (UTC) header in descending order
Start Az.
Max El. time (UTC)
Max El. Az.
Max El.
End time (UTC)
End Az.
4 mins2024-12-04 12:35:48.105Z56.085° ENE2024-12-04 12:37:48.105Z92.83° ESE15.934°2024-12-04 12:39:48.105Z130.088° SE
4 mins2024-12-04 14:09:48.105Z326.263° NNW2024-12-04 14:10:48.105Z302.372° NW23.034°2024-12-04 14:13:48.105Z235.209° WSW
5 mins2024-12-05 00:43:48.105Z170.145° S2024-12-05 00:45:48.105Z194.359° SSW44.494°2024-12-05 00:48:48.105Z346.839° N
|